DELTA 1 DEB, 39098

Orbit data source: Space-Track

DELTA 1 DEB, 39098 is space debris in LEO originally from a launch on Thu, 14 Jul 1977 UTC launched from the Air Force Eastern Test Range (AFETR). Debris objects in space refer to the collection of defunct objects orbiting the Earth. Examples of debris include non-operational satellites, rocket bodies, and fragments generated from explosions, collisions, or faulty payload assembly.

Loading next visibility...
Identifier
39098, 1977-065GK
Orbit
LEO
Country
Flag of USUS
Related business
Manufacturer
Unknown
Mission
Spacecraft
Bus & Motor
Unknown
Mass
Unknown
Launch date (UTC)
1977-07-14 (49 years ago)
Launch vehicle
Unknown
Launch site
Air Force Eastern Test Range (AFETR)
Object type
Payload
Rocket body
Debris
Shape & HBR
Unknown shape, 0.1 m
Radar Cross Section
Small (<0.1 m²)

Expand to show TLE details & history
Last TLE update: 2 days ago

TLE from 2 days ago
0 DELTA 1 DEB
1 39098U 77065GK  26131.90157505  .00003589  00000-0  57212-3 0  9994
2 39098  29.0342 204.2838 0520040 258.6676  95.5053 14.06926850620241
Epoch: 2026-05-11T21:38Z
TLE epoch observation values (Epoch: 2026-05-11T21:38:16.084Z)
Latitude
-0°
Longitude
10.03312°
Altitude
923.685 km
Speed
7.364 km/s
True Right ascension
13h 37m 08s
True Declination
0° 00' 00"
Sunlit
Object was in full shadow at epoch
Visualization orbit readout
Latitude
Unknown
Longitude
Unknown
Altitude
Unknown
Speed
Unknown
Apparent Right ascension
Unknown
Apparent Declination
Unknown
Sunlit
N/A
Visualization observer readout
Local Sidereal Time
19:11:13
Azimuth
Unknown
Elevation
Unknown
Doppler factor
Unknown
Orbital elements
Apogee altitude
1,250.991 km
Perigee altitude
496.726 km
Semi-major axis
7,251.996 km
Eccentricity
0.052
Inclination
29.0342°
RAAN
204.2838°
Arg. of periapsis
258.6676°
True anomaly
101.38991°
Mean anomaly
95.5053°
Eccentric anomaly
98.45255°
Mean motion
3.51445 °/min
Orbital period
102.43 mins
BSTAR
0.00057212
Loading maneuver chart data...
Computing Atmospheric mass density...

Documentation

Showing up to 5 results
|